Probability
0 0 0 0 0 0 0 0 0 0 0 0 0 0 0 0 0 0 0 0 0 0 0 0 0 0 0 0 1 3 7 11 12 11 12 13 9 4 3 2 1 0 0 0
0 0 0 0 0 0 0 0 0 0 0 0 0 0 0 0 0 0 0 0 0 0 0 0 0 0 0 0 0 2 4 7 9 8 7 6 5 2 1 1 0 0 0 0
0 0 0 0 0 0 0 0 0 0 0 0 0 0 0 0 0 0 0 0 0 0 0 0 0 0 0 0 0 0 1 2 3 3 2 1 1 0 0 0 0 0 0 0
0 0 0 0 0 0 0 0 0 0 0 0 0 0 0 0 0 0 0 0 0 0 0 0 0 0 0 0 0 0 0 0 0 0 0 0 0 0 0 0 0 0 0 0
0 0 0 0 0 0 0 0 0 0 0 0 0 0 0 0 0 0 0 0 0 0 0 0 0 0 0 0 0 0 0 0 0 0 0 0 0 0 0 0 0 0 0 0
0 0 0 0 0 0 0 0 0 0 0 0 0 0 0 0 0 0 0 0 0 0 0 0 0 0 0 0 0 0 0 0 0 0 0 0 0 0 0 0 0 0 0 0
0 0 0 0 0 0 0 0 0 0 0 0 0 0 0 0 0 0 0 0 0 0 0 0 0 0 0 0 0 0 0 0 0 0 0 0 0 0 0 0 0 0 0 0
0 0 0 0 0 0 0 0 0 0 0 0 0 0 0 0 0 0 0 0 0 0 0 0 0 0 0 0 0 0 0 0 0 0 0 0 0 0 0 0 0 0 0 0
0 0 0 0 0 0 0 0 0 0 0 0 0 0 0 0 0 0 0 0 0 0 0 0 0 0 0 0 0 0 0 0 0 0 0 0 0 0 0 0 0 0 0 0
0 0 0 0 0 0 0 0 0 0 0 0 0 0 0 0 0 0 0 0 0 0 0 0 0 0 0 0 0 0 0 0 0 0 0 0 0 0 0 0 0 0 0 0
0 0 0 0 0 0 0 0 0 0 0 0 0 0 0 0 0 0 0 0 0 0 0 0 0 0 0 0 0 0 0 0 0 0 0 0 0 0 0 0 0 0 0 0
0 0 0 0 0 0 0 0 0 0 0 0 0 0 0 0 0 0 0 0 0 0 0 0 0 0 0 0 0 0 0 0 0 0 0 0 0 0 0 0 0 0 0 0
0 0 0 0 0 0 0 0 0 0 0 0 0 0 0 0 0 0 0 0 0 0 0 0 0 0 0 0 0 0 0 0 0 0 0 0 0 0 0 0 0 0 0 0
0 0 0 0 0 0 0 0 0 0 0 0 0 0 0 0 0 0 0 0 0 0 0 0 0 0 0 0 0 0 0 0 0 0 0 0 0 0 0 0 0 0 0 0
0 0 0 0 0 0 0 0 0 0 0 0 0 0 0 0 0 0 0 0 0 0 0 0 0 0 0 0 0 0 0 0 0 0 0 0 0 0 0 0 0 0 0 0
0 0 0 0 0 0 0 0 0 0 0 0 0 0 0 0 0 0 0 0 0 0 0 0 0 0 0 0 0 0 0 0 0 0 0 0 0 0 0 0 0 0 0 0
0 0 0 0 0 0 0 0 0 0 0 0 0 0 0 0 0 0 0 0 0 0 0 0 0 0 0 0 0 0 0 0 0 0 0 0 0 0 0 0 0 0 0 0
0 0 0 0 0 0 0 0 0 0 0 0 0 0 0 0 0 0 0 0 0 0 0 0 0 0 0 0 0 0 0 0 0 0 0 0 0 0 0 0 0 0 0 0
0 0 0 0 0 0 0 0 0 0 0 0 0 0 0 0 0 0 0 0 0 0 0 0 0 0 0 0 0 0 0 0 0 0 0 0 0 0 0 0 0 0 0 0
0 0 0 0 0 0 0 0 0 0 0 0 0 0 0 0 0 0 0 0 0 0 0 0 0 0 0 0 0 0 0 0 0 0 0 0 0 0 0 0 0 0 0 0
0 0 0 0 0 0 0 0 0 0 0 0 0 0 0 0 0 0 0 0 0 0 0 0 0 0 0 0 0 0 0 0 0 0 0 0 0 0 0 0 0 0 0 0
0 0 0 0 0 0 0 0 0 0 0 0 0 0 0 0 0 0 0 0 0 0 0 0 0 0 0 0 0 0 0 0 0 0 0 0 0 0 0 0 0 0 0 0
0 0 0 0 0 0 0 0 0 0 0 0 0 0 0 0 0 0 0 0 0 0 0 0 0 0 0 0 0 0 0 0 0 0 0 0 0 0 0 0 0 0 0 0
0 0 0 0 0 0 0 0 0 0 0 0 0 0 0 0 0 0 0 0 0 0 0 0 0 0 0 0 0 0 0 0 0 0 0 0 0 0 0 0 0 0 0 0
0 0 0 0 0 0 0 0 0 0 0 0 0 0 0 0 0 0 0 0 0 0 0 0 0 0 0 0 0 0 0 0 0 0 0 0 0 0 0 0 0 0 0 0
0 0 0 0 0 0 0 0 0 0 0 0 0 0 0 0 0 0 0 0 0 0 0 0 0 0 0 0 0 0 0 0 0 0 0 0 0 0 0 0 0 0 0 0
Wind_Speed
5 5 7 8 11 8 4 4 5 1 5 4 7 10 11 9 8 9 9 9 10 10 9 8 9 10 9 8 9 11 12 12 10 8 8 8 8 7 6 6 9 10 10 11
4 8 9 5 3 3 4 4 6 5 2 2 6 12 12 12 12 12 11 11 10 9 7 6 7 8 10 9 9 9 10 11 11 9 7 5 5 5 5 5 8 10 11 12
10 4 7 6 3 3 5 6 7 6 2 4 5 10 12 12 14 13 11 10 10 10 8 4 4 6 7 8 9 7 8 10 10 9 5 4 3 3 4 6 7 9 11 12
9 6 3 5 7 6 6 6 7 4 3 5 4 7 4 6 6 9 9 9 9 8 5 3 4 4 5 6 6 6 6 7 8 9 9 9 8 8 8 6 6 8 10 11
7 6 7 7 7 8 2 4 2 2 3 6 5 8 7 7 8 9 10 10 7 4 1 2 3 2 2 3 4 5 5 5 6 8 9 10 8 6 5 6 8 8 7 9
2 1 2 2 2 6 7 5 3 1 2 7 7 8 10 7 9 7 7 5 3 2 3 5 4 4 2 2 2 2 3 4 5 6 7 8 8 7 7 8 9 7 5 6
6 5 2 3 5 5 6 6 3 3 5 9 6 9 9 2 4 5 4 2 2 3 4 3 3 2 2 2 2 2 3 4 4 5 5 6 6 7 9 9 10 9 6 6
11 9 14 10 9 9 10 9 9 8 6 5 3 10 7 3 3 3 3 3 2 2 3 3 3 2 2 3 3 3 3 3 4 5 5 4 5 4 5 7 7 9 7 7
8 7 9 11 5 11 8 9 6 3 2 4 8 7 3 1 2 3 3 1 1 1 2 3 3 2 2 2 3 3 4 4 4 4 5 4 4 4 5 5 6 6 6 6
3 2 4 4 2 2 2 5 4 6 6 7 9 9 7 6 7 4 1 2 2 2 2 2 2 2 1 1 2 2 3 4 4 5 5 4 4 4 4 5 5 6 7 7
4 4 4 3 9 10 6 5 6 6 6 6 6 7 1 3 5 5 3 3 3 2 1 1 2 3 2 2 2 3 3 4 4 5 5 5 4 4 5 5 5 6 6 7
5 3 4 6 4 3 8 10 10 7 6 5 5 8 3 7 6 6 5 3 3 2 1 1 2 2 2 3 4 4 4 5 5 5 5 5 5 5 5 6 6 6 7 7
6 6 3 2 3 1 4 7 10 6 4 6 8 7 2 5 5 3 3 1 0 1 1 1 1 2 3 4 5 5 5 6 5 5 6 6 6 6 7 6 6 7 7 7
6 5 7 7 4 5 5 6 7 8 8 10 13 10 4 0 3 4 4 3 2 2 1 1 2 3 3 4 5 6 6 6 6 6 7 7 7 7 7 6 7 7 8 8
5 5 6 5 2 2 4 7 9 12 11 10 10 12 10 5 6 6 6 5 4 3 3 3 3 3 3 3 4 5 5 6 6 7 8 8 7 6 6 6 7 7 7 8
5 4 4 4 5 5 7 10 12 13 12 14 15 19 8 7 7 6 6 5 5 5 6 6 5 5 4 4 4 4 5 5 5 7 8 7 6 6 6 6 6 7 7 7
5 6 4 3 4 2 11 14 14 12 11 11 17 17 5 6 5 4 4 4 4 5 6 7 6 5 5 5 5 5 5 4 5 7 6 6 6 6 7 7 7 8 8 7
6 6 3 3 4 10 10 5 11 14 14 13 12 8 3 3 3 1 2 4 5 7 7 7 7 7 6 6 5 5 5 4 5 6 6 6 6 7 7 7 8 7 6 7
6 7 5 4 6 8 8 6 7 7 7 5 6 4 2 3 2 1 5 5 4 5 5 5 5 6 6 6 6 6 6 5 5 5 6 5 6 6 6 8 8 6 6 6
7 6 6 6 6 9 7 2 3 5 5 1 2 2 3 3 1 1 6 7 6 5 5 5 5 5 6 6 6 6 6 5 5 5 5 4 5 6 7 7 6 5 5 6
7 7 12 10 7 8 6 3 5 7 6 3 3 2 2 1 2 4 5 6 5 5 5 5 5 5 5 5 5 6 6 6 6 5 4 3 4 5 5 4 4 5 5 5
10 9 9 8 10 11 3 4 5 4 3 3 2 1 0 3 4 5 5 5 6 6 5 5 5 5 5 4 4 5 6 6 4 3 2 2 2 3 3 5 4 5 6 6
8 9 6 9 7 2 4 5 4 4 3 2 1 1 2 4 5 5 6 6 6 5 5 4 4 6 5 4 3 5 6 5 4 2 2 1 1 2 3 4 5 5 5 5
4 2 3 3 3 3 3 3 3 3 3 2 2 3 3 5 7 7 7 7 6 5 4 3 4 6 6 4 3 4 5 4 3 2 2 1 2 2 3 3 4 5 5 5
6 6 5 5 3 1 2 2 2 2 2 3 4 4 5 6 8 8 7 7 6 5 3 3 3 5 6 5 4 4 4 3 2 2 2 2 2 3 3 3 3 4 4 5
6 6 6 5 4 3 3 1 1 2 3 4 5 5 5 6 8 7 7 6 5 4 3 3 4 4 4 4 4 5 5 3 2 2 2 2 2 2 2 2 2 5 5 7
Wind_Direction
184 205 204 205 213 247 309 323 300 328 124 186 241 259 264 263 249 242 243 247 249 246 236 213 197 187 183 186 187 184 183 185 185 188 188 186 190 185 182 179 177 175 171 167
159 230 228 234 225 237 263 273 283 295 140 183 268 270 267 256 249 241 241 245 248 255 250 228 196 176 179 186 191 191 187 186 190 194 192 184 175 179 178 172 177 176 174 171
201 188 206 209 188 210 234 233 248 265 288 221 259 277 243 243 235 235 238 244 251 254 255 244 187 174 175 184 191 196 196 190 190 185 170 146 130 133 168 182 183 181 177 175
229 233 174 192 198 192 240 229 229 264 307 276 225 285 258 261 240 218 224 236 246 251 248 231 184 170 173 185 183 191 199 193 186 180 180 180 188 194 193 181 178 175 177 176
214 181 172 194 198 187 191 68 125 200 236 273 249 269 264 230 240 219 214 225 236 236 180 89 91 109 137 157 169 184 194 193 184 185 189 194 203 202 175 162 169 174 177 177
229 83 175 188 151 168 123 93 76 134 227 257 214 233 272 213 223 207 198 201 196 127 95 87 81 71 70 104 131 160 188 195 185 189 195 201 203 191 172 169 174 174 174 177
203 191 182 113 114 122 147 144 164 217 219 244 191 216 253 158 112 125 137 147 126 110 103 96 99 105 129 142 155 177 189 197 187 189 202 206 204 191 186 179 179 175 176 185
199 206 180 183 174 168 193 185 177 195 220 260 228 230 249 131 116 124 154 180 155 125 124 133 139 147 174 179 175 185 195 201 188 192 205 207 201 191 191 184 179 183 187 187
213 219 163 176 176 159 175 219 220 237 275 287 258 255 265 169 231 240 225 160 78 95 114 130 140 161 183 181 186 193 191 197 196 197 200 205 202 194 192 183 174 178 178 174
261 224 115 113 82 280 211 173 158 187 201 238 258 244 240 219 217 216 196 110 79 80 96 123 144 152 150 166 195 198 197 202 204 201 200 203 203 196 186 177 176 171 167 165
210 195 141 149 193 189 179 197 191 187 188 195 257 258 163 118 132 129 119 114 115 107 125 154 155 154 162 180 211 217 213 213 210 206 203 200 201 195 186 183 179 171 167 168
170 175 200 206 205 231 207 200 191 189 217 211 236 257 94 95 97 104 109 109 115 143 183 166 157 166 193 213 218 221 218 217 216 209 205 203 198 191 189 188 180 171 171 172
141 157 183 228 209 229 230 217 212 214 198 209 223 249 128 111 103 98 100 103 114 194 194 173 187 213 225 226 221 221 222 221 215 206 208 208 203 198 198 192 180 173 172 171
142 172 199 205 164 164 196 215 214 207 218 229 233 244 226 335 360 345 337 331 320 306 285 272 263 250 241 234 227 224 224 216 209 204 208 215 212 206 201 191 182 178 174 174
156 192 214 241 248 171 200 212 217 224 227 232 247 256 258 285 304 309 311 312 319 325 331 328 306 290 279 265 251 240 236 221 207 205 213 219 213 204 195 190 184 176 175 177
169 181 186 229 227 228 242 231 226 229 234 243 258 263 263 269 281 297 313 325 332 334 336 337 333 330 318 299 282 266 252 237 216 216 221 217 206 200 195 189 180 176 177 175
169 157 171 213 177 210 247 224 216 220 217 220 243 255 263 269 280 294 320 342 340 334 333 335 334 330 326 324 317 297 280 262 232 228 225 214 204 201 196 183 180 185 184 179
158 153 167 173 153 225 238 196 201 219 229 227 238 257 265 264 279 302 20 14 0 354 347 342 339 335 332 327 325 320 308 286 253 241 233 217 205 203 192 185 191 190 184 187
181 164 177 189 218 256 269 229 198 205 232 231 240 270 326 334 331 70 45 27 360 340 329 321 323 322 326 333 336 324 308 292 269 255 245 229 211 204 195 196 195 188 183 190
206 184 188 198 207 229 238 202 180 165 232 67 97 63 25 43 7 299 5 350 339 337 334 329 330 335 332 331 333 322 309 302 284 272 260 236 212 205 203 200 191 182 183 188
177 198 212 215 225 250 245 185 124 178 217 149 108 92 54 70 244 295 323 327 322 323 327 334 335 329 319 322 328 315 310 302 295 284 265 237 210 202 197 187 178 169 170 174
174 182 198 202 218 239 200 141 169 169 131 134 118 117 263 273 288 300 307 305 306 309 314 320 316 311 314 322 322 310 305 305 306 297 272 240 205 184 171 169 170 168 170 179
196 190 183 191 207 191 130 130 127 130 135 147 155 237 281 286 287 291 291 292 292 291 294 298 298 302 308 316 311 298 304 315 314 304 274 229 174 167 167 172 175 172 176 184
223 178 181 219 221 160 132 130 140 145 165 196 226 257 265 268 275 281 282 283 281 279 281 290 298 299 306 320 320 301 305 311 297 279 261 209 185 181 174 178 180 184 187 191
196 173 191 223 232 286 251 202 182 192 217 241 253 247 250 261 272 275 279 278 276 279 282 282 282 290 301 318 321 324 322 316 298 276 246 219 206 193 185 187 195 194 197 199
203 184 182 210 192 189 230 252 312 288 278 276 279 280 269 256 267 277 276 274 272 274 283 285 284 284 296 311 316 327 325 312 283 266 243 220 206 199 191 183 192 207 202 208